Siemreap, Cambodia

8:55 PM +07 on November 24, 2017 (GMT +0700)
Siem Reap

Weather History for VDSR - February, 2013

Change the Weather History Date:

Friday, February 22, 2013

  Actual Average Record
Temperature  
Mean Temperature 83 °F -  
Max Temperature 93 °F - - ()
Min Temperature 73 °F - - ()
Cooling Degree Days 18    
Growing Degree Days 33 (Base 50)    
Moisture  
Dew Point 61 °F    
Average Humidity 46    
Maximum Humidity 78    
Minimum Humidity 30    
Precipitation  
Precipitation 0.00 in - - ()
Sea Level Pressure  
Sea Level Pressure 29.85 in    
Wind  
Wind Speed 5 mph ()    
Max Wind Speed 10 mph    
Max Gust Speed -    
Visibility 5.4 miles    
Events      
T = Trace of Precipitation, MM = Missing Value Source: Averaged Metar Reports

Daily Weather History Graph

Daily Weather History Graph

Search for Another Location

Airport or City:

Trip Planner

Search our weather history database for the weather conditions in past years. The results will help you decide how hot, cold, wet, or windy it might be!

Date:

Astronomy

Feb. 22, 2013 Rise Set
Actual Time 6:24 AM +07 6:11 PM +07
Civil Twilight 6:02 AM +07 6:33 PM +07
Nautical Twilight 5:38 AM +07 6:58 PM +07
Astronomical Twilight 5:13 AM +07 7:23 PM +07
Moon 3:13 PM +07 (2/22) 3:24 AM +07 (2/22)
Length of Visible Light 12h 30m
Length of Day
11h 47m
Waxing Gibbous, 87% of the Moon is Illuminated
Feb 22
Waxing Gibbous
Feb 26
Full
Mar 5
Last Quarter
Mar 12
New
Mar 20
First Quarter

Hourly Weather History & Observations

Time (+07) Temp. Heat Index Dew Point Humidity Pressure Visibility Wind Dir Wind Speed Gust Speed Precip Events Conditions
12:00 AM 77.0 °F - 69.8 °F 78% 29.83 in 5.6 mi Calm Calm - N/A   Partly Cloudy
12:30 AM 77.0 °F - 69.8 °F 78% 29.83 in 5.6 mi North 3.5 mph - N/A   Partly Cloudy
1:00 AM 77.0 °F - 69.8 °F 78% 29.83 in 5.6 mi Variable 2.3 mph - N/A   Partly Cloudy
7:00 AM - - - %  in - Calm Calm - -  
7:00 AM 73.4 °F - 64.4 °F 73% 29.89 in 4.3 mi Variable 2.3 mph - N/A   Scattered Clouds
7:30 AM 75.2 °F - 64.4 °F 69% 29.89 in 5.0 mi NNE 5.8 mph - N/A   Scattered Clouds
8:00 AM 77.0 °F - 62.6 °F 61% 29.89 in 5.0 mi NNE 3.5 mph - N/A   Scattered Clouds
8:30 AM 78.8 °F - 62.6 °F 57% 29.92 in 5.6 mi North 3.5 mph - N/A   Scattered Clouds
9:00 AM 78.8 °F - 62.6 °F 57% 29.92 in - Variable 3.5 mph - N/A   Clear
9:30 AM 82.4 °F 82.9 °F 60.8 °F 48% 29.92 in - North 5.8 mph - N/A   Clear
10:00 AM 82.4 °F 82.9 °F 60.8 °F 48% 29.92 in - North 5.8 mph - N/A   Clear
10:30 AM 84.2 °F 84.4 °F 60.8 °F 45% 29.92 in - NNE 3.5 mph - N/A   Clear
11:00 AM 86.0 °F 86.1 °F 60.8 °F 43% 29.89 in - ENE 8.1 mph - N/A   Clear
11:30 AM 86.0 °F 86.1 °F 60.8 °F 43% 29.89 in - East 8.1 mph - N/A   Clear
12:00 PM 89.6 °F 88.9 °F 59.0 °F 36% 29.86 in - NE 5.8 mph - N/A   Clear
12:30 PM 89.6 °F 88.9 °F 59.0 °F 36% 29.86 in - NE 8.1 mph - N/A   Clear
1:00 PM 89.6 °F 88.9 °F 59.0 °F 36% 29.83 in - ENE 8.1 mph - N/A   Clear
1:30 PM 91.4 °F 89.9 °F 57.2 °F 31% 29.83 in 5.6 mi NE 3.5 mph - N/A   Partly Cloudy
2:00 PM 93.2 °F 91.9 °F 57.2 °F 30% 29.80 in 5.6 mi NNW 9.2 mph - N/A   Partly Cloudy
2:30 PM 93.2 °F 91.9 °F 57.2 °F 30% 29.80 in 5.6 mi NW 9.2 mph - N/A   Partly Cloudy
3:00 PM 93.2 °F 91.9 °F 57.2 °F 30% 29.77 in 5.6 mi NNW 6.9 mph - N/A   Scattered Clouds
3:30 PM 93.2 °F 91.9 °F 57.2 °F 30% 29.77 in 5.6 mi North 9.2 mph - N/A   Scattered Clouds
4:00 PM 93.2 °F 91.9 °F 57.2 °F 30% 29.77 in 5.6 mi North 5.8 mph - N/A   Scattered Clouds
5:00 PM 91.4 °F 90.7 °F 59.0 °F 34% 29.77 in 5.6 mi North 8.1 mph - N/A   Scattered Clouds
5:30 PM 91.4 °F 90.7 °F 59.0 °F 34% 29.80 in 5.6 mi North 4.6 mph - N/A   Scattered Clouds
6:00 PM 89.6 °F 88.9 °F 59.0 °F 36% 29.80 in 5.6 mi North 6.9 mph - N/A   Scattered Clouds
6:30 PM 89.6 °F 88.9 °F 59.0 °F 36% 29.80 in 5.6 mi North 8.1 mph - N/A   Scattered Clouds
7:00 PM 87.8 °F 87.1 °F 59.0 °F 38% 29.83 in 5.6 mi North 8.1 mph - N/A   Scattered Clouds
7:30 PM 87.8 °F 87.1 °F 59.0 °F 38% 29.83 in 5.6 mi NNE 8.1 mph - N/A   Scattered Clouds
8:00 PM 86.0 °F 85.4 °F 59.0 °F 40% 29.83 in 5.6 mi NNE 5.8 mph - N/A   Scattered Clouds
8:30 PM 86.0 °F 86.6 °F 62.6 °F 45% 29.86 in 5.0 mi NE 5.8 mph - N/A   Unknown
9:00 PM 86.0 °F 88.2 °F 66.2 °F 51% 29.86 in 5.0 mi Calm Calm - N/A   Unknown
9:30 PM 84.2 °F 85.6 °F 64.4 °F 51% 29.86 in 5.0 mi NNW 5.8 mph - N/A   Unknown
10:00 PM 84.2 °F 86.6 °F 66.2 °F 55% 29.89 in 5.0 mi NE 3.5 mph - N/A   Scattered Clouds
10:30 PM 84.2 °F 85.0 °F 62.6 °F 48% 29.89 in 5.0 mi NE 10.4 mph - N/A   Scattered Clouds
11:00 PM 84.2 °F 84.4 °F 60.8 °F 45% 29.89 in 5.0 mi North 10.4 mph - N/A   Scattered Clouds
11:30 PM 82.4 °F 82.9 °F 60.8 °F 48% 29.89 in 5.0 mi North 6.9 mph - N/A   Scattered Clouds